Torna al catalogo

COSMOS 1275 DEB

AttivoPO
NORAD 12658·DEBRIS·🇷🇺 Russia

Lanciato Jun 4, 1981 da Plesetsk Cosmodrome

Loading…

Prossimi Passaggi (prossime 24 ore)

TLE

AggiornatoSource: Space-Track

Epoca: Sep 14, 2026, 10:48 UTC

1 12658U 81053N   26257.45058639  .00001740  00000-0  65487-3 0  9996
2 12658  82.9655  70.0196 0033605 162.4868 226.5475 14.30709017303003

Traccia COSMOS 1275 DEB in tempo reale con AllMySat

Download on the App Store